GSAT0211 (PRN E02)

Last updated on Fri Apr 12 2024 01:03:08 GMT+0100 (British Summer Time)

1 41549U 16030A 24101.04083283 -.00000009 00000+0 00000+0 0 9997 2 41549 55.3996 243.6501 0002761 12.1193 347.8267 1.70473827 49061
UTC large
Height (km)
Speed (km/s)
/
Latitude / Longitude
Inclination (degrees)
Orbital Period (minutes)
Azimuth
Elevation
Range (km)
Doppler Factor

Next 0 passes for location: London (51.5072 / 0.1276)

Sorry there are no passes over London.